DW7013 Weather Reports


Display with metric or nautical units.
time (UTC)temp
F
wind
direction
speed
MPH
gust
MPH
rain 1hr
in
rain 24hr
in
rain mn
in
humidity
%
barometer
mb
20260903081219 66 175 2.0 6.0 0.00 0.00 0.00 61 1025.4
20260903080715 66 152 1.0 3.0 0.00 0.00 0.00 61 1025.7
20260903075726 65 144 0.0 0.0 0.00 0.00 0.00 62 1025.5
20260903075215 65 134 0.0 0.0 0.00 0.00 0.00 62 1025.5
20260903074720 64 149 0.0 0.0 0.00 0.00 0.00 65 1025.3
20260903074215 64 134 0.0 0.0 0.00 0.00 0.00 64 1025.1
20260903073714 63 179 0.0 0.0 0.00 0.00 0.00 67 1025.1
20260903073229 62 252 0.0 0.0 0.00 0.00 0.00 68 1025.1
20260903072725 62 252 0.0 0.0 0.00 0.00 0.00 69 1025.1
20260903072223 62 202 0.0 0.0 0.00 0.00 0.00 71 1025.1
20260903071707 61 202 0.0 2.0 0.00 0.00 0.00 71 1025.0
20260903071239 61 202 0.0 2.0 0.00 0.00 0.00 72 1025.1
20260903070720 60 202 0.0 2.0 0.00 0.00 0.00 73 1025.1
20260903065722 58 5 0.0 3.0 0.00 0.00 0.00 79 1025.2
20260903065225 57 5 0.0 3.0 0.00 0.00 0.00 79 1025.1
20260903064731 56 5 1.0 3.0 0.00 0.00 0.00 79 1025.2
20260903064223 56 5 1.0 2.0 0.00 0.00 0.00 80 1025.3
20260903063714 55 39 0.0 2.0 0.00 0.00 0.00 81 1025.3
20260903063223 54 79 0.0 2.0 0.00 0.00 0.00 83 1025.2
20260903062221 53 79 1.0 3.0 0.00 0.00 0.00 83 1025.2
20260903061726 53 79 1.0 2.0 0.00 0.00 0.00 83 1025.3
20260903061225 53 79 0.0 1.0 0.00 0.00 0.00 83 1025.3
20260903060727 53 30 0.0 1.0 0.00 0.00 0.00 83 1025.4
20260903055717 53 24 0.0 1.0 0.00 0.00 0.00 82 1025.3
20260903055222 53 24 0.0 1.0 0.00 0.00 0.00 82 1025.2
20260903054214 53 24 0.0 1.0 0.00 0.00 0.00 83 1025.2
20260903053711 53 24 0.0 1.0 0.00 0.00 0.00 83 1025.1
20260903053232 53 151 0.0 1.0 0.00 0.00 0.00 82 1025.2
20260903052715 53 151 0.0 1.0 0.00 0.00 0.00 82 1025.1
20260903052229 53 151 0.0 1.0 0.00 0.00 0.00 82 1025.1
20260903051723 53 151 0.0 2.0 0.00 0.00 0.00 82 1025.0
20260903051241 53 151 0.0 2.0 0.00 0.00 0.00 81 1025.0
20260903050725 53 151 0.0 2.0 0.00 0.00 0.00 81 1025.0
20260903050230 53 151 0.0 2.0 0.00 0.00 0.00 81 1025.0
20260903045713 53 151 0.0 5.0 0.00 0.00 0.00 82 1024.9
20260903044716 53 151 1.0 5.0 0.00 0.00 0.00 82 1024.8
20260903044214 53 327 1.0 2.0 0.00 0.00 0.00 82 1024.8
20260903043723 53 36 0.0 2.0 0.00 0.00 0.00 82 1024.8
20260903043220 53 36 0.0 2.0 0.00 0.00 0.00 82 1024.8
20260903042727 53 27 0.0 2.0 0.00 0.00 0.00 82 1024.8
20260903041724 53 22 1.0 3.0 0.00 0.00 0.00 82 1024.7
20260903041221 53 15 0.0 4.0 0.00 0.00 0.00 82 1024.8
20260903040718 53 26 1.0 4.0 0.00 0.00 0.00 82 1024.7
20260903040225 53 25 1.0 4.0 0.00 0.00 0.00 81 1024.8
20260903035708 53 327 0.0 0.0 0.00 0.00 0.00 81 1024.6
20260903035213 53 157 0.0 2.0 0.00 0.00 0.00 81 1024.6
20260903034722 53 157 0.0 2.0 0.00 0.00 0.00 81 1024.6
20260903033727 54 240 0.0 3.0 0.00 0.00 0.00 81 1024.7
20260903033224 54 250 1.0 4.0 0.00 0.00 0.00 81 1024.7
20260903032226 54 130 1.0 4.0 0.00 0.00 0.00 81 1024.8
20260903031709 54 355 0.0 2.0 0.00 0.00 0.00 81 1024.8
20260903031222 54 117 0.0 1.0 0.00 0.00 0.00 80 1024.7
20260903030720 54 32 0.0 0.0 0.00 0.00 0.00 80 1024.8
20260903030227 54 32 0.0 0.0 0.00 0.00 0.00 80 1024.9
20260903025713 54 32 0.0 0.0 0.00 0.00 0.00 80 1024.8
20260903025227 54 36 0.0 0.0 0.00 0.00 0.00 79 1024.7
20260903024720 55 69 0.0 2.0 0.00 0.00 0.00 79 1024.8
20260903024222 55 69 0.0 3.0 0.00 0.00 0.00 79 1024.7
20260903023719 55 69 1.0 5.0 0.00 0.00 0.00 79 1024.7
20260903022720 55 42 1.0 5.0 0.00 0.00 0.00 79 1024.7
20260903022221 55 0 0.0 1.0 0.00 0.00 0.00 79 1024.7
20260903021718 55 67 0.0 3.0 0.00 0.00 0.00 78 1024.7
20260903021221 56 67 0.0 3.0 0.00 0.00 0.00 78 1024.7
20260903020720 56 67 1.0 3.0 0.00 0.00 0.00 78 1024.7
20260903020246 56 67 0.0 0.0 0.00 0.00 0.00 78 1024.7
20260903015720 56 137 0.0 0.0 0.00 0.00 0.00 78 1024.7
20260903015210 56 229 0.0 0.0 0.00 0.00 0.00 78 1024.7
20260903014722 56 146 0.0 0.0 0.00 0.00 0.00 78 1024.7
20260903014217 56 146 0.0 3.0 0.00 0.00 0.00 78 1024.8
20260903013712 56 86 1.0 3.0 0.00 0.00 0.00 78 1024.8
20260903013221 56 86 1.0 3.0 0.00 0.00 0.00 77 1024.8
20260903012721 56 311 1.0 4.0 0.00 0.00 0.00 78 1024.8
20260903012217 56 59 2.0 5.0 0.00 0.00 0.00 78 1024.8
20260903011710 56 29 2.0 8.0 0.00 0.00 0.00 77 1024.8
20260903010738 56 0 1.0 8.0 0.00 0.00 0.00 77 1024.7
20260903005212 56 5 0.0 0.0 0.00 0.00 0.00 77 1024.7
20260903004716 56 355 0.0 0.0 0.00 0.00 0.00 77 1024.6
20260903004222 57 55 0.0 0.0 0.00 0.00 0.00 77 1024.6
20260903003725 57 55 0.0 0.0 0.00 0.00 0.00 77 1024.5
20260903003231 57 55 0.0 3.0 0.00 0.00 0.00 77 1024.6
20260903002728 57 59 0.0 7.0 0.00 0.00 0.00 77 1024.5
20260903001219 57 5 2.0 4.0 0.00 0.00 0.00 78 1024.5
20260903000722 56 344 1.0 5.0 0.00 0.00 0.00 79 1024.4
20260903000229 56 29 1.0 5.0 0.00 0.00 0.00 79 1024.5
20260902235722 56 11 1.0 5.0 0.00 0.00 0.00 79 1024.5
20260902234216 56 24 0.0 0.0 0.00 0.00 0.00 80 1024.6
20260902233717 56 24 0.0 0.0 0.00 0.00 0.00 79 1024.6
20260902233223 56 0 0.0 0.0 0.00 0.00 0.00 79 1024.6
20260902232715 56 0 0.0 0.0 0.00 0.00 0.00 79 1024.6
20260902232232 56 0 0.0 0.0 0.00 0.00 0.00 79 1024.6
20260902231716 57 0 0.0 0.0 0.00 0.00 0.00 79 1024.6
20260902231225 57 135 0.0 0.0 0.00 0.00 0.00 79 1024.6
20260902230713 57 138 0.0 0.0 0.00 0.00 0.00 78 1024.5
20260902230220 57 138 0.0 0.0 0.00 0.00 0.00 78 1024.5
20260902225723 57 138 0.0 0.0 0.00 0.00 0.00 77 1024.5
20260902224721 57 137 0.0 0.0 0.00 0.00 0.00 77 1024.5
20260902223714 57 355 0.0 0.0 0.00 0.00 0.00 77 1024.5
20260902223225 58 355 0.0 0.0 0.00 0.00 0.00 77 1024.5
20260902222710 58 355 0.0 0.0 0.00 0.00 0.00 77 1024.5
20260902222220 58 355 0.0 6.0 0.00 0.00 0.00 76 1024.6
20260902221731 58 355 0.0 6.0 0.00 0.00 0.00 76 1024.5
20260902221218 58 355 0.0 6.0 0.00 0.00 0.00 76 1024.6
20260902220729 58 5 0.0 0.0 0.00 0.00 0.00 76 1024.6
20260902215717 58 327 0.0 0.0 0.00 0.00 0.00 75 1024.5
20260902215224 58 0 0.0 0.0 0.00 0.00 0.00 75 1024.5
20260902214213 58 0 0.0 0.0 0.00 0.00 0.00 75 1024.5
20260902213210 58 0 0.0 0.0 0.00 0.00 0.00 73 1024.5
20260902211729 59 350 0.0 0.0 0.00 0.00 0.00 73 1024.4
20260902210715 59 350 0.0 0.0 0.00 0.00 0.00 72 1024.5
20260902210222 59 350 0.0 0.0 0.00 0.00 0.00 72 1024.4
20260902205710 60 350 0.0 0.0 0.00 0.00 0.00 72 1024.5
20260902205208 60 350 0.0 0.0 0.00 0.00 0.00 72 1024.4
20260902203718 60 350 0.0 0.0 0.00 0.00 0.00 71 1024.3
20260902202727 60 346 0.0 0.0 0.00 0.00 0.00 69 1024.0
20260902202231 60 355 0.0 0.0 0.00 0.00 0.00 68 1024.0
20260902201716 60 355 0.0 0.0 0.00 0.00 0.00 68 1024.1
20260902201217 61 355 0.0 0.0 0.00 0.00 0.00 68 1024.1
20260902200728 61 355 0.0 0.0 0.00 0.00 0.00 67 1024.1
20260902200241 61 351 0.0 0.0 0.00 0.00 0.00 66 1024.0
20260902195712 61 38 0.0 0.0 0.00 0.00 0.00 66 1024.0
20260902195218 61 328 0.0 0.0 0.00 0.00 0.00 66 1023.9
20260902194710 62 334 0.0 0.0 0.00 0.00 0.00 65 1024.0
20260902193721 62 5 0.0 0.0 0.00 0.00 0.00 65 1023.9
20260902193222 62 0 0.0 0.0 0.00 0.00 0.00 64 1023.9
20260902192730 62 5 0.0 0.0 0.00 0.00 0.00 64 1023.9
20260902192234 62 5 0.0 0.0 0.00 0.00 0.00 64 1023.8
20260902191722 63 5 0.0 0.0 0.00 0.00 0.00 64 1023.8
20260902191214 63 5 0.0 0.0 0.00 0.00 0.00 64 1023.7
20260902190214 64 339 0.0 0.0 0.00 0.00 0.00 64 1023.7
20260902185716 64 26 0.0 0.0 0.00 0.00 0.00 63 1023.6
20260902185225 65 0 0.0 0.0 0.00 0.00 0.00 62 1023.6
20260902184718 65 355 0.0 0.0 0.00 0.00 0.00 62 1023.5
20260902184221 66 74 0.0 0.0 0.00 0.00 0.00 61 1023.4
20260902183728 66 350 0.0 0.0 0.00 0.00 0.00 61 1023.4
20260902183231 67 344 0.0 1.0 0.00 0.00 0.00 61 1023.4
20260902182718 67 345 0.0 5.0 0.00 0.00 0.00 60 1023.4
20260902182223 67 345 0.0 5.0 0.00 0.00 0.00 60 1023.4
20260902181713 67 313 0.0 4.0 0.00 0.00 0.00 57 1023.2
20260902180707 68 71 0.0 3.0 0.00 0.00 0.00 57 1023.2
20260902180219 68 50 0.0 3.0 0.00 0.00 0.00 57 1023.2
20260902175723 68 83 0.0 3.0 0.00 0.00 0.00 58 1023.2
20260902175226 68 330 0.0 11.0 0.00 0.00 0.00 57 1023.1
20260902174227 68 328 2.0 11.0 0.00 0.00 0.00 56 1023.0
20260902173714 69 334 0.0 0.0 0.00 0.00 0.00 56 1023.0
20260902173220 69 333 0.0 0.0 0.00 0.00 0.00 58 1022.8
20260902172722 69 66 0.0 0.0 0.00 0.00 0.00 56 1022.8
20260902172214 69 317 0.0 0.0 0.00 0.00 0.00 57 1022.7
20260902171712 70 344 0.0 0.0 0.00 0.00 0.00 57 1022.8
20260902171220 70 342 0.0 0.0 0.00 0.00 0.00 56 1022.7
20260902170719 71 310 0.0 0.0 0.00 0.00 0.00 55 1022.7
20260902170247 71 310 0.0 0.0 0.00 0.00 0.00 53 1022.7
20260902165715 71 292 0.0 0.0 0.00 0.00 0.00 52 1022.7
20260902165228 72 63 0.0 0.0 0.00 0.00 0.00 49 1022.6
20260902164721 72 24 0.0 0.0 0.00 0.00 0.00 49 1022.6
20260902164211 73 16 0.0 0.0 0.00 0.00 0.00 49 1022.5
20260902163210 73 169 0.0 11.0 0.00 0.00 0.00 47 1022.6
20260902162723 73 90 2.0 11.0 0.00 0.00 0.00 46 1022.7
20260902161716 73 58 1.0 9.0 0.00 0.00 0.00 47 1022.7
20260902161212 74 113 1.0 9.0 0.00 0.00 0.00 45 1022.7
20260902160711 74 197 1.0 9.0 0.00 0.00 0.00 45 1022.7
20260902160245 74 156 1.0 12.0 0.00 0.00 0.00 44 1022.6
20260902155722 74 142 2.0 18.0 0.00 0.00 0.00 45 1022.7
20260902154724 73 196 6.0 15.0 0.00 0.00 0.00 45 1022.8
20260902154220 73 340 4.0 15.0 0.00 0.00 0.00 46 1022.6
20260902153211 73 0 3.0 13.0 0.00 0.00 0.00 44 1022.7
20260902151732 73 25 3.0 11.0 0.00 0.00 0.00 43 1022.8
20260902151218 73 79 4.0 11.0 0.00 0.00 0.00 42 1022.7
20260902150716 74 70 3.0 11.0 0.00 0.00 0.00 41 1022.7
20260902150223 74 19 2.0 11.0 0.00 0.00 0.00 42 1022.6
20260902145709 75 234 4.0 11.0 0.00 0.00 0.00 40 1022.6
20260902145228 75 297 4.0 11.0 0.00 0.00 0.00 40 1022.6
20260902144728 75 314 2.0 13.0 0.00 0.00 0.00 41 1022.7
20260902144221 74 334 4.0 13.0 0.00 0.00 0.00 40 1022.6
20260902143722 74 340 4.0 13.0 0.00 0.00 0.00 40 1022.8
20260902143229 74 295 3.0 8.0 0.00 0.00 0.00 39 1022.7
20260902142716 74 343 3.0 8.0 0.00 0.00 0.00 40 1022.7
20260902142229 74 302 3.0 11.0 0.00 0.00 0.00 36 1022.8
20260902141716 74 320 2.0 11.0 0.00 0.00 0.00 37 1022.8
20260902141217 74 333 4.0 14.0 0.00 0.00 0.00 36 1022.8
20260902140726 74 22 5.0 14.0 0.00 0.00 0.00 35 1022.7
20260902140224 75 124 6.0 16.0 0.00 0.00 0.00 36 1022.7
20260902135213 75 323 5.0 16.0 0.00 0.00 0.00 39 1022.7
20260902134712 75 5 4.0 12.0 0.00 0.00 0.00 38 1022.8
20260902134216 75 299 3.0 12.0 0.00 0.00 0.00 37 1022.7
20260902133706 76 342 3.0 12.0 0.00 0.00 0.00 35 1022.7
20260902133225 76 314 2.0 13.0 0.00 0.00 0.00 34 1022.7
20260902132712 76 79 2.0 13.0 0.00 0.00 0.00 35 1022.7
20260902131224 75 292 1.0 9.0 0.00 0.00 0.00 34 1023.0
20260902130719 75 254 2.0 10.0 0.00 0.00 0.00 33 1023.0
20260902125727 74 62 5.0 14.0 0.00 0.00 0.00 36 1023.0
20260902125235 74 344 7.0 14.0 0.00 0.00 0.00 35 1023.0
20260902124711 74 278 5.0 11.0 0.00 0.00 0.00 37 1023.1
20260902124210 74 328 4.0 14.0 0.00 0.00 0.00 42 1023.2
20260902123718 74 326 4.0 14.0 0.00 0.00 0.00 41 1023.1
20260902123218 75 102 5.0 14.0 0.00 0.00 0.00 41 1023.1
20260902122720 75 348 5.0 12.0 0.00 0.00 0.00 42 1023.0
20260902122224 75 298 5.0 12.0 0.00 0.00 0.00 44 1023.0
20260902121718 75 333 2.0 9.0 0.00 0.00 0.00 44 1023.0
20260902121208 76 248 1.0 10.0 0.00 0.00 0.00 41 1023.0
20260902120723 76 334 3.0 10.0 0.00 0.00 0.00 45 1023.1
20260902120222 75 340 2.0 8.0 0.00 0.00 0.00 45 1023.1
20260902115726 75 151 1.0 8.0 0.00 0.00 0.00 45 1023.0
20260902115220 74 344 1.0 11.0 0.00 0.00 0.00 47 1023.0
20260902114722 73 339 2.0 11.0 0.00 0.00 0.00 47 1023.1
20260902114227 73 109 4.0 11.0 0.00 0.00 0.00 49 1023.1
20260902113721 73 329 4.0 11.0 0.00 0.00 0.00 49 1023.1
20260902113209 73 333 3.0 11.0 0.00 0.00 0.00 49 1023.2
20260902111728 73 322 3.0 9.0 0.00 0.00 0.00 51 1023.2
20260902111217 73 284 3.0 9.0 0.00 0.00 0.00 51 1023.3
20260902110714 72 333 4.0 10.0 0.00 0.00 0.00 51 1023.3
20260902104718 72 275 1.0 6.0 0.00 0.00 0.00 48 1023.3
20260902103722 73 337 1.0 6.0 0.00 0.00 0.00 48 1023.4
20260902102719 72 183 1.0 5.0 0.00 0.00 0.00 50 1023.4
20260902102211 71 175 0.0 0.0 0.00 0.00 0.00 53 1023.4
20260902101213 71 5 1.0 6.0 0.00 0.00 0.00 52 1023.5
20260902100736 70 249 3.0 6.0 0.00 0.00 0.00 52 1023.4
20260902100215 71 121 2.0 6.0 0.00 0.00 0.00 52 1023.5
20260902095720 71 169 1.0 6.0 0.00 0.00 0.00 51 1023.4
20260902095226 71 142 2.0 7.0 0.00 0.00 0.00 53 1023.5
20260902094731 70 160 2.0 7.0 0.00 0.00 0.00 54 1023.5
20260902094221 70 230 2.0 7.0 0.00 0.00 0.00 53 1023.5
20260902093720 70 169 1.0 7.0 0.00 0.00 0.00 55 1023.6
20260902093209 70 180 1.0 8.0 0.00 0.00 0.00 54 1023.5
20260902092709 69 187 3.0 8.0 0.00 0.00 0.00 54 1023.5
20260902092235 69 163 3.0 7.0 0.00 0.00 0.00 55 1023.5
20260902091717 69 173 2.0 6.0 0.00 0.00 0.00 56 1023.5
20260902091215 68 131 2.0 6.0 0.00 0.00 0.00 57 1023.5
20260902090722 68 172 2.0 6.0 0.00 0.00 0.00 57 1023.6
20260902090227 67 113 1.0 4.0 0.00 0.00 0.00 57 1023.5
20260902085720 68 175 0.0 0.0 0.00 0.00 0.00 58 1023.6
20260902084212 67 163 0.0 0.0 0.00 0.00 0.00 61 1023.4
20260902083716 67 173 0.0 0.0 0.00 0.00 0.00 65 1023.5
20260902083227 65 151 0.0 0.0 0.00 0.00 0.00 69 1023.5
20260902082733 65 205 0.0 0.0 0.00 0.00 0.00 70 1023.5
20260902082220 64 153 0.0 0.0 0.00 0.00 0.00 72 1023.4
20260902081723 64 164 0.0 0.0 0.00 0.00 0.00 72 1023.3